Location: Bonningues
(50.7927°N, 2.0150°E)
Time: 05:02:52
(UTC+00:00)

Cosmos 1378 Rocket - Pass Details

Date: 08 August 2020
Orbit: 601 x 628 km, 82.5° (Epoch: 23 September)

Event Time Altitude Azimuth Distance (km) Brightness Sun altitude
Rises 23:21:51 0° 348° (NNW) 2,931 8.5 -23.0°
Reaches altitude 10° 23:24:06 10° 347° (NNW) 2,018 7.3 -23.0°
Maximum altitude 23:28:35 79° 263° (W) 646 3.5 -23.1°
Enters shadow 23:28:52 74° 217° (SW) 657 3.4 -23.1°
